Powrót do katalogu

FENGYUN 1C DEB

AktywnyPO
NORAD 33601·DEBRIS·🇨🇳 China

Wystrzelony May 10, 1999 z Taiyuan Satellite Launch Center

Loading…

Następne Przeloty (najbliższe 24 godziny)

TLE

ŚwieżeSource: Space-Track

Epoka: Sep 13, 2026, 07:46 UTC

1 33601U 99025DCJ 26256.32417108  .00001224  00000-0  65110-3 0  9990
2 33601  98.3426  36.7038 0156554  77.9439 283.9228 14.08987759945458

Śledź FENGYUN 1C DEB w czasie rzeczywistym z AllMySat

Download on the App Store